Location: Slanting_Bridge
(35.6330°N, 80.9830°W)
Time: 11:40:49
(UTC-04:00)

Amateur Radio Satellites - All Passes

Search period start: 25 September 2016 11:10
Search period end: 26 September 2016 11:10
Location: Slanting_Bridge, 35.6330°N, 80.9830°W

Satellite Date Start Highest point End Downlink Frequencies (MHz)
Time Altitude Azimuth
HUMSAT D 25 Sep 11:17:05 11:21:13 48° 99° (E) 11:25:21 437.325/437.525
HO-68 25 Sep 11:20:34 11:24:33 16° 303° (WNW) 11:28:32 435.675
FUNcube-1 25 Sep 11:26:19 11:29:50 25° 289° (WNW) 11:33:24 145.935
UWE-3 25 Sep 11:31:38 11:33:42 13° 293° (WNW) 11:35:47 435.000/436.395/437.385
UNISAT 6 25 Sep 11:32:45 11:36:40 34° 262° (W) 11:40:34 437.425
DELFI C3 25 Sep 11:36:30 11:40:18 41° 286° (WNW) 11:44:03 145.870
QB50P1 25 Sep 11:47:18 11:51:11 37° 73° (ENE) 11:55:04 145.935-145.965
DUCHIFAT 1 25 Sep 11:48:39 11:52:25 33° 72° (ENE) 11:56:11 145.980
BEESAT 3 25 Sep 11:49:12 11:53:10 70° 242° (WSW) 11:57:06 437.485
JAS-2 25 Sep 11:58:24 12:04:14 43° 68° (ENE) 12:10:46 435.910
POPSAT HIP 1 25 Sep 12:00:17 12:04:22 53° 75° (ENE) 12:08:28 437.405
BUGSAT 1 25 Sep 12:04:16 12:07:17 20° 69° (ENE) 12:10:16 437.445
PHONESAT 2.4 25 Sep 12:05:28 12:08:12 37° 151° (SSE) 12:10:59 2401.200-2431.200
ANTELSAT 25 Sep 12:10:20 12:12:27 13° 267° (W) 12:14:33 437.575/2403.000
Cosmos 2499 25 Sep 12:11:18 12:12:04 10° 295° (WNW) 12:12:51 435.465 / 435.565
AISAT 25 Sep 12:14:35 12:16:59 14° 93° (E) 12:19:22 437.250
GONETS M04 25 Sep 12:15:51 12:18:45 12° 298° (WNW) 12:21:40
NANOSAT C BR1 25 Sep 12:18:36 12:22:48 87° 76° (ENE) 12:27:00 145.865
50 SAT 25 Sep 12:25:33 12:27:48 15° 94° (E) 12:30:01 437.505
SPROUT 25 Sep 12:31:09 12:31:30 10° 91° (E) 12:31:52 437.525
UKube-1 25 Sep 12:38:29 12:39:43 11° 92° (E) 12:40:56 .
BEESAT 2 25 Sep 12:38:43 12:42:28 38° 246° (WSW) 12:46:11 435.950
QB50P2 25 Sep 12:39:22 12:43:24 44° 261° (W) 12:47:27 145.880/145.840
POLYITAN 1 25 Sep 12:41:38 12:45:39 44° 260° (W) 12:49:41 437.675
ESTCUBE 1 25 Sep 12:44:50 12:49:22 70° 101° (ESE) 12:53:52 437.505/2401.250
Oscar 19 25 Sep 12:47:51 12:50:40 15° 64° (ENE) 12:53:27 437.125/150
HUMSAT D 25 Sep 12:54:31 12:56:23 13° 294° (WNW) 12:58:15 437.325/437.525
VELOX 1 25 Sep 12:56:59 13:01:11 43° 99° (E) 13:05:21 145.980
DX 1 25 Sep 12:59:13 13:02:56 27° 97° (E) 13:06:36 434.975-435.025
AIST 2 25 Sep 12:59:39 13:01:15 12° 46° (NE) 13:02:51 435.215
M-CUBED/EXP-1 PRIME 25 Sep 13:02:23 13:05:04 23° 102° (ESE) 13:07:45 437.505
CUBEBUG 1 25 Sep 13:08:50 13:13:11 83° 100° (E) 13:17:30 437.445
Gurwin Techsat 1B 25 Sep 13:22:12 13:25:06 15° 64° (ENE) 13:28:01 435.225
QB50P1 25 Sep 13:24:41 13:27:04 15° 267° (W) 13:29:26 145.935-145.965
DUCHIFAT 1 25 Sep 13:25:31 13:28:10 16° 266° (W) 13:30:49 145.980
BUGSAT 1 25 Sep 13:38:55 13:42:28 27° 263° (W) 13:45:59 437.445
POPSAT HIP 1 25 Sep 13:39:59 13:40:25 10° 268° (W) 13:40:52 437.405
PHONESAT 2.4 25 Sep 13:41:30 13:44:20 43° 346° (NNW) 13:47:12 2401.200-2431.200
JAS-2 25 Sep 13:44:11 13:49:25 28° 267° (W) 13:55:13 435.910
AISAT 25 Sep 13:49:29 13:53:37 41° 287° (WNW) 13:57:44 437.250
50 SAT 25 Sep 13:58:11 14:01:18 26° 288° (WNW) 14:04:23 437.505
TISAT 1 25 Sep 13:59:27 14:02:39 21° 96° (E) 14:05:50 437.305
AUBIESAT-1 25 Sep 14:01:32 14:04:45 52° 289° (WNW) 14:07:59 437.475
SPROUT 25 Sep 14:03:34 14:07:44 54° 285° (WNW) 14:11:52 437.525
Cosmos 2491 25 Sep 14:04:34 14:07:16 12° 76° (ENE) 14:09:59 435.465 / 435.565
YUBILEINY 25 Sep 14:08:14 14:15:25 28° 72° (ENE) 14:22:32 435.215
UKube-1 25 Sep 14:11:50 14:16:01 52° 286° (WNW) 14:20:11 .
AO-7 25 Sep 14:19:45 14:24:30 17° 53° (NE) 14:29:15 29.400- 29.500
PCSat 25 Sep 14:23:38 14:28:20 29° 55° (NE) 14:33:00 145.827
Oscar 19 25 Sep 14:24:16 14:29:24 62° 259° (W) 14:34:34 437.125/150
ESTCUBE 1 25 Sep 14:25:09 14:25:32 10° 296° (WNW) 14:25:55 437.505/2401.250
VELOX 1 25 Sep 14:34:46 14:37:15 15° 294° (WNW) 14:39:43 145.980
DX 1 25 Sep 14:35:36 14:38:56 22° 291° (WNW) 14:42:16 434.975-435.025
AIST 2 25 Sep 14:36:00 14:40:10 69° 243° (WSW) 14:44:19 435.215
M-CUBED/EXP-1 PRIME 25 Sep 14:37:42 14:39:24 14° 296° (WNW) 14:41:07 437.505
SWISSCUBE 25 Sep 14:45:03 14:47:46 15° 93° (E) 14:50:27 437.505
Cosmos 2504 25 Sep 14:54:17 14:59:05 18° 70° (ENE) 15:04:02 435.465 / 435.565
BEESAT 25 Sep 14:57:50 15:01:09 18° 94° (E) 15:04:27 436.000
Gurwin Techsat 1B 25 Sep 14:59:14 15:04:28 62° 259° (WSW) 15:09:45 435.225
ITAMSAT 1 25 Sep 15:11:24 15:16:18 46° 72° (ENE) 15:21:14 435.822/435.867
PHONESAT 2.4 25 Sep 15:18:09 15:20:50 30° 3° (N) 15:23:32 2401.200-2431.200
TISAT 1 25 Sep 15:34:47 15:38:13 26° 290° (WNW) 15:41:40 437.305
Cosmos 2491 25 Sep 15:53:46 16:02:30 78° 94° (E) 16:11:20 435.465 / 435.565
YUBILEINY 25 Sep 16:04:10 16:12:34 56° 270° (W) 16:20:58 435.215
ITUPSAT 1 25 Sep 16:06:18 16:11:08 81° 284° (WNW) 16:15:56 437.325
PCSat 25 Sep 16:06:51 16:11:43 35° 251° (WSW) 16:16:33 145.827
AO-7 25 Sep 16:07:42 16:16:02 83° 72° (ENE) 16:24:22 29.400- 29.500
SO-50 25 Sep 16:08:59 16:13:42 54° 116° (ESE) 16:18:23 436.795
SWISSCUBE 25 Sep 16:21:09 16:25:45 48° 288° (WNW) 16:30:22 437.505
AIST 1 25 Sep 16:28:42 16:30:47 13° 72° (ENE) 16:32:51
BEESAT 25 Sep 16:34:35 16:39:02 39° 288° (WNW) 16:43:27 436.000
Cosmos 2504 25 Sep 16:45:37 16:53:01 73° 266° (W) 17:00:56 435.465 / 435.565
MOZHAYETS 4 25 Sep 16:47:53 16:52:23 47° 99° (E) 16:56:50
BRITE-PL 25 Sep 16:50:01 16:52:44 14° 63° (ENE) 16:55:27 437.365/2234.400
ITAMSAT 1 25 Sep 16:52:29 16:55:57 18° 266° (W) 16:59:26 435.822/435.867
PHONESAT 2.4 25 Sep 16:54:17 16:57:15 68° 18° (NNE) 17:00:13 2401.200-2431.200
KKS-1 25 Sep 17:33:08 17:37:35 85° 281° (WNW) 17:41:59 437.445
HORYU 2 25 Sep 17:48:25 17:52:50 87° 76° (ENE) 17:57:16 437.375
SO-50 25 Sep 17:51:09 17:54:28 18° 312° (NW) 17:57:47 436.795
Cosmos 2491 25 Sep 17:54:15 18:00:14 20° 293° (WNW) 18:06:18 435.465 / 435.565
CUBESAT XI-V 25 Sep 18:00:24 18:04:42 35° 97° (E) 18:08:57 437.345
O/OREOS (USA 219) 25 Sep 18:00:37 18:04:49 34° 64° (ENE) 18:08:59 437.305
AO-7 25 Sep 18:04:26 18:09:32 17° 267° (W) 18:14:40 29.400- 29.500
AIST 1 25 Sep 18:04:33 18:08:34 40° 268° (W) 18:12:33
STARS 25 Sep 18:14:22 18:18:40 61° 285° (WNW) 18:22:58 437.465
NOAA 15 25 Sep 18:22:51 18:27:56 49° 72° (ENE) 18:33:03 137.62
BRITE-PL 25 Sep 18:24:48 18:30:28 79° 258° (WSW) 18:36:10 437.365/2234.400
MOZHAYETS 4 25 Sep 18:26:27 18:29:06 15° 294° (WNW) 18:31:46
LilacSat-2 25 Sep 18:27:56 18:31:21 35° 73° (ENE) 18:34:49 437.200
GOMX 1 25 Sep 18:28:29 18:33:46 51° 74° (ENE) 18:38:52 467.674
Cubesat XI-IV 25 Sep 18:29:24 18:34:26 45° 71° (ENE) 18:39:28 437.490
CUTE-I 25 Sep 18:30:25 18:35:27 46° 72° (ENE) 18:40:31 437.470
PHONESAT 2.4 25 Sep 18:30:56 18:33:10 19° 214° (SSW) 18:35:26 2401.200-2431.200
NOAA 18 25 Sep 18:48:37 18:53:58 58° 73° (ENE) 18:59:20 137.9125
CINEMA 3 25 Sep 19:02:51 19:03:13 10° 66° (ENE) 19:03:35 145.822/145.860
DOVE 4 25 Sep 19:03:49 19:08:45 49° 74° (ENE) 19:13:28 437.250
RS-15 25 Sep 19:12:08 19:19:52 21° 99° (E) 19:27:48 29.354- 29.394
STRAND 1 25 Sep 19:37:21 19:40:35 17° 93° (E) 19:43:47 437.568
CUBESAT XI-V 25 Sep 19:38:24 19:41:48 20° 292° (WNW) 19:45:12 437.345
O/OREOS (USA 219) 25 Sep 19:40:42 19:43:56 19° 260° (W) 19:47:09 437.305
CUSAT 1 25 Sep 19:45:47 19:51:12 49° 90° (E) 19:58:01 437.405
HO-68 25 Sep 19:55:44 20:02:34 49° 68° (ENE) 20:09:22 435.675
CUTE 1.7 + AOD 2 25 Sep 20:00:55 20:04:39 32° 72° (ENE) 20:08:27 437.475
CANX-2 25 Sep 20:01:26 20:05:21 38° 73° (ENE) 20:09:17 2200.000
LilacSat-2 25 Sep 20:04:15 20:05:46 12° 267° (W) 20:07:19 437.200
Cosmos 2499 25 Sep 20:04:25 20:10:49 29° 74° (ENE) 20:17:35 435.465 / 435.565
NOAA 15 25 Sep 20:04:27 20:07:55 18° 267° (W) 20:11:24 137.62
SEEDS 25 Sep 20:07:32 20:11:01 26° 71° (ENE) 20:14:32 437.485
GOMX 1 25 Sep 20:08:24 20:11:59 18° 267° (W) 20:15:31 467.674
Cubesat XI-IV 25 Sep 20:10:56 20:14:39 19° 266° (W) 20:18:24 437.490
CUTE-I 25 Sep 20:12:04 20:15:41 19° 266° (W) 20:19:19 437.470
CUBEBUG 2 25 Sep 20:24:52 20:28:05 21° 70° (ENE) 20:31:15 437.445
GONETS M04 25 Sep 20:25:43 20:34:14 51° 78° (ENE) 20:42:38
NOAA 18 25 Sep 20:31:47 20:34:57 16° 267° (W) 20:38:07 137.9125
CINEMA 3 25 Sep 20:35:16 20:39:51 66° 260° (W) 20:44:13 145.822/145.860
AAUSAT CUBESAT 2 25 Sep 20:37:30 20:41:08 30° 72° (ENE) 20:44:48 437.432
DOVE 4 25 Sep 20:43:28 20:46:34 16° 267° (W) 20:49:37 437.250
FUNcube-1 25 Sep 20:44:36 20:46:25 13° 67° (ENE) 20:48:15 145.935
UWE-3 25 Sep 20:48:10 20:51:37 25° 71° (ENE) 20:55:02 435.000/436.395/437.385
DANDE 25 Sep 20:52:18 20:56:47 65° 94° (E) 21:02:51 436.750
STRAND 1 25 Sep 21:15:01 21:19:59 50° 287° (WNW) 21:24:55 437.568
COMPASS 1 25 Sep 21:18:38 21:22:44 62° 260° (W) 21:26:54 437.405
RS-15 25 Sep 21:19:03 21:30:35 87° 299° (WNW) 21:42:49 29.354- 29.394
ZACube-1 25 Sep 21:22:51 21:26:44 39° 73° (ENE) 21:30:35 437.345
Oscar 11 25 Sep 21:25:31 21:29:34 42° 73° (ENE) 21:33:39 145.826/435.025
CUSAT 1 25 Sep 21:28:51 21:33:39 25° 293° (WNW) 21:39:21 437.405
CUTE 1.7 + AOD 2 25 Sep 21:37:44 21:40:33 17° 266° (W) 21:43:22 437.475
CANX-2 25 Sep 21:38:59 21:41:19 14° 267° (W) 21:43:41 2200.000
ISS 25 Sep 21:39:54 21:43:09 81° 321° (NW) 21:46:25 145.825
SEEDS 25 Sep 21:43:28 21:46:39 21° 265° (W) 21:49:52 437.485
HO-68 25 Sep 21:44:29 21:50:25 28° 264° (W) 21:56:24 435.675
AO-85 25 Sep 21:49:18 21:54:24 51° 115° (ESE) 21:59:15 145.980
Cosmos 2499 25 Sep 21:56:52 22:04:02 48° 269° (W) 22:11:46 435.465 / 435.565
CUBEBUG 2 25 Sep 22:01:00 22:04:33 26° 263° (W) 22:08:04 437.445
HUMSAT D 25 Sep 22:06:05 22:09:14 22° 70° (ENE) 22:12:24 437.325/437.525
PRISM 25 Sep 22:09:43 22:13:50 63° 102° (ESE) 22:17:53 437.425
JUGNU 25 Sep 22:11:56 22:14:57 14° 171° (S) 22:17:58 437.505
AAUSAT CUBESAT 2 25 Sep 22:13:48 22:16:37 18° 266° (W) 22:19:28 437.432
FUNcube-1 25 Sep 22:18:18 22:22:16 43° 261° (W) 22:26:13 145.935
DELFI C3 25 Sep 22:18:42 22:22:40 70° 76° (ENE) 22:26:39 145.870
GONETS M04 25 Sep 22:23:14 22:30:34 31° 276° (W) 22:37:52
UWE-3 25 Sep 22:24:48 22:28:01 21° 265° (W) 22:31:12 435.000/436.395/437.385
ANTELSAT 25 Sep 22:28:05 22:29:23 11° 92° (E) 22:30:40 437.575/2403.000
DANDE 25 Sep 22:38:08 22:40:38 13° 300° (WNW) 22:43:27 436.750
TIGRISAT 25 Sep 22:47:42 22:50:47 18° 95° (E) 22:53:55 435.000
ZACube-1 25 Sep 23:01:10 23:03:10 13° 267° (W) 23:05:10 437.345
Oscar 11 25 Sep 23:03:44 23:05:52 13° 267° (W) 23:08:01 145.826/435.025
ISS 25 Sep 23:18:41 23:20:05 12° 335° (NNW) 23:21:29 145.825
UNISAT 6 25 Sep 23:26:29 23:30:49 57° 100° (E) 23:35:14 437.425
AO-85 25 Sep 23:31:15 23:35:05 21° 310° (NW) 23:38:46 145.980
RS-15 25 Sep 23:35:24 23:45:01 28° 324° (NW) 23:55:01 29.354- 29.394
ESTCUBE 1 25 Sep 23:41:16 23:45:32 43° 73° (ENE) 23:49:51 437.505/2401.250
HUMSAT D 25 Sep 23:41:27 23:44:43 23° 264° (W) 23:48:02 437.325/437.525
M-CUBED/EXP-1 PRIME 25 Sep 23:45:33 23:49:02 25° 67° (ENE) 23:52:20 437.505
POPSAT HIP 1 25 Sep 23:50:38 23:51:30 11° 92° (E) 23:52:22 437.405
VELOX 1 25 Sep 23:51:33 23:55:18 27° 70° (ENE) 23:59:03 145.980
DX 1 25 Sep 23:52:35 23:55:30 18° 67° (ENE) 23:58:23 434.975-435.025
JUGNU 25 Sep 23:59:36 00:03:12 17° 182° (S) 00:06:47 437.505
CUBEBUG 1 26 Sep 00:01:33 00:05:46 46° 74° (ENE) 00:10:00 437.445
ANTELSAT 26 Sep 00:02:02 00:06:20 55° 286° (WNW) 00:10:44 437.575/2403.000
NANOSAT C BR1 26 Sep 00:06:58 00:09:42 17° 94° (E) 00:12:26 145.865
TIGRISAT 26 Sep 00:23:34 00:27:30 33° 288° (WNW) 00:31:31 435.000
QB50P2 26 Sep 00:27:08 00:30:59 34° 98° (E) 00:34:49 145.880/145.840
POLYITAN 1 26 Sep 00:29:22 00:33:13 34° 98° (E) 00:37:03 437.675
50 SAT 26 Sep 00:31:07 00:34:44 78° 75° (ENE) 00:38:22 437.505
AISAT 26 Sep 00:43:12 00:47:39 71° 259° (WSW) 00:52:07 437.250
AUBIESAT-1 26 Sep 00:43:51 00:48:05 79° 252° (WSW) 00:52:01 437.475
SO-50 26 Sep 00:43:54 00:47:29 22° 50° (NE) 00:50:59 436.795
TISAT 1 26 Sep 00:50:04 00:51:30 12° 65° (ENE) 00:52:57 437.305
SRMSAT 26 Sep 00:51:49 00:55:04 15° 173° (S) 00:58:20 437.500
SPROUT 26 Sep 00:53:38 00:57:53 74° 76° (ENE) 01:02:09 437.525
JAS-2 26 Sep 00:55:03 01:02:46 55° 99° (E) 01:10:03 435.910
UKube-1 26 Sep 01:02:52 01:07:12 87° 77° (ENE) 01:11:33 .
UNISAT 6 26 Sep 01:05:28 01:07:02 12° 294° (WNW) 01:08:36 437.425
QB50P1 26 Sep 01:10:03 01:14:15 74° 285° (WNW) 01:18:27 145.935-145.965
DUCHIFAT 1 26 Sep 01:10:34 01:14:46 85° 285° (WNW) 01:18:57 145.980
M-CUBED/EXP-1 PRIME 26 Sep 01:19:58 01:23:26 23° 258° (WSW) 01:26:43 437.505
ESTCUBE 1 26 Sep 01:19:59 01:22:31 15° 267° (W) 01:25:04 437.505/2401.250
BUGSAT 1 26 Sep 01:22:53 01:26:47 48° 100° (E) 01:30:40 437.445
POPSAT HIP 1 26 Sep 01:23:27 01:27:32 51° 286° (WNW) 01:31:37 437.405
DX 1 26 Sep 01:27:20 01:31:22 36° 261° (W) 01:35:25 434.975-435.025
VELOX 1 26 Sep 01:28:08 01:31:41 23° 264° (W) 01:35:14 145.980
BEESAT 3 26 Sep 01:36:49 01:40:25 37° 114° (ESE) 01:44:03 437.485
CUBEBUG 1 26 Sep 01:40:05 01:42:15 13° 267° (W) 01:44:25 437.445
NANOSAT C BR1 26 Sep 01:41:43 01:45:28 32° 288° (WNW) 01:49:13 145.865
JUGNU 26 Sep 01:49:08 01:51:25 12° 192° (SSW) 01:53:41 437.505
SWISSCUBE 26 Sep 01:49:36 01:51:46 13° 64° (ENE) 01:53:57 437.505
RS-15 26 Sep 01:57:52 02:03:54 14° 360° (N) 02:09:58 29.354- 29.394
BEESAT 26 Sep 02:02:05 02:04:57 16° 65° (ENE) 02:07:48 436.000
QB50P2 26 Sep 02:03:46 02:06:29 17° 292° (WNW) 02:09:13 145.880/145.840
POLYITAN 1 26 Sep 02:06:00 02:08:43 17° 292° (WNW) 02:11:26 437.675
Cosmos 2491 26 Sep 02:08:27 02:16:15 33° 73° (ENE) 02:23:56 435.465 / 435.565
TISAT 1 26 Sep 02:22:34 02:26:39 51° 260° (W) 02:30:46 437.305
SO-50 26 Sep 02:23:53 02:28:01 35° 247° (WSW) 02:32:04 436.795
BEESAT 2 26 Sep 02:27:10 02:31:05 72° 116° (ESE) 02:35:02 435.950
Oscar 19 26 Sep 02:38:48 02:43:55 60° 101° (E) 02:48:58 437.125/150
SRMSAT 26 Sep 02:39:53 02:43:28 16° 183° (S) 02:47:04 437.500
JAS-2 26 Sep 02:40:42 02:47:14 30° 296° (WNW) 02:53:36 435.910
BUGSAT 1 26 Sep 03:00:33 03:01:41 11° 294° (WNW) 03:02:51 437.445
YUBILEINY 26 Sep 03:05:21 03:13:03 36° 86° (E) 03:20:43 435.215
ITUPSAT 1 26 Sep 03:09:52 03:14:37 84° 76° (ENE) 03:19:25 437.325
BEESAT 3 26 Sep 03:15:41 03:18:12 16° 310° (NW) 03:20:44 437.485
Gurwin Techsat 1B 26 Sep 03:18:21 03:23:39 67° 102° (ESE) 03:28:56 435.225
SWISSCUBE 26 Sep 03:24:21 03:29:01 59° 259° (W) 03:33:44 437.505
ITAMSAT 1 26 Sep 03:27:54 03:31:46 21° 95° (E) 03:35:36 435.822/435.867
Cosmos 2504 26 Sep 03:31:49 03:35:32 15° 81° (E) 03:39:10 435.465 / 435.565
BEESAT 26 Sep 03:37:44 03:42:17 47° 260° (W) 03:46:53 436.000
MOZHAYETS 4 26 Sep 03:47:00 03:51:00 31° 71° (ENE) 03:55:03
Cosmos 2491 26 Sep 04:04:53 04:13:14 48° 271° (W) 04:21:31 435.465 / 435.565
BEESAT 2 26 Sep 04:08:50 04:09:21 10° 314° (NW) 04:09:53 435.950
ISS 26 Sep 04:10:19 04:13:17 30° 35° (NE) 04:16:15 145.825
RS-15 26 Sep 04:12:51 04:22:53 27° 36° (NE) 04:32:46 29.354- 29.394
AO-7 26 Sep 04:13:18 04:20:33 33° 98° (E) 04:27:46 29.400- 29.500
Oscar 19 26 Sep 04:19:52 04:22:41 15° 296° (WNW) 04:25:29 437.125/150
KKS-1 26 Sep 04:27:56 04:32:19 59° 75° (ENE) 04:36:43 437.445
SRMSAT 26 Sep 04:30:02 04:31:51 11° 193° (SSW) 04:33:41 437.500
AIST 2 26 Sep 04:30:30 04:34:27 49° 115° (ESE) 04:38:26 435.215
Gurwin Techsat 1B 26 Sep 05:00:19 05:02:59 14° 297° (WNW) 05:05:38 435.225
CUBESAT XI-V 26 Sep 05:01:01 05:04:49 25° 70° (ENE) 05:08:39 437.345
YUBILEINY 26 Sep 05:01:17 05:09:34 44° 283° (WNW) 05:17:51 435.215
PCSat 26 Sep 05:01:53 05:07:01 46° 111° (ESE) 05:12:11 145.827
ITAMSAT 1 26 Sep 05:06:28 05:11:19 41° 289° (WNW) 05:16:12 435.822/435.867
STARS 26 Sep 05:07:36 05:12:00 79° 75° (ENE) 05:16:23 437.465
Cosmos 2504 26 Sep 05:20:26 05:28:00 78° 277° (W) 05:35:14 435.465 / 435.565
MOZHAYETS 4 26 Sep 05:24:45 05:28:10 21° 265° (W) 05:31:37
HORYU 2 26 Sep 05:43:00 05:46:18 20° 95° (E) 05:49:37 437.375
ISS 26 Sep 05:47:03 05:49:39 22° 230° (SW) 05:52:14 145.825
AO-7 26 Sep 06:05:34 06:13:27 50° 294° (WNW) 06:21:19 29.400- 29.500
KKS-1 26 Sep 06:08:36 06:09:12 10° 268° (W) 06:09:49 437.445
AIST 2 26 Sep 06:10:52 06:13:11 15° 312° (NW) 06:15:33 435.215
CUSAT 1 26 Sep 06:23:29 06:30:26 35° 71° (ENE) 06:36:24 437.405
RS-15 26 Sep 06:25:00 06:37:29 84° 61° (ENE) 06:49:33 29.354- 29.394
AO-85 26 Sep 06:25:16 06:27:59 17° 48° (NE) 06:30:36 145.980
AIST 1 26 Sep 06:30:04 06:34:24 61° 278° (W) 06:38:46
BRITE-PL 26 Sep 06:33:52 06:38:26 42° 97° (E) 06:42:39 437.365/2234.400
GOMX 1 26 Sep 06:35:21 06:37:56 15° 92° (E) 06:40:25 467.674
CUBESAT XI-V 26 Sep 06:38:03 06:42:03 28° 264° (W) 06:46:05 437.345
NOAA 15 26 Sep 06:41:37 06:45:47 23° 95° (E) 06:49:56 137.62
PCSat 26 Sep 06:46:23 06:50:36 23° 307° (NW) 06:54:52 145.827
Cubesat XI-IV 26 Sep 06:50:08 06:54:19 23° 95° (E) 06:58:29 437.490
STRAND 1 26 Sep 06:50:38 06:54:03 18° 65° (ENE) 06:57:30 437.568
CUTE-I 26 Sep 06:50:56 06:55:10 24° 95° (E) 06:59:24 437.470
DOVE 4 26 Sep 07:07:39 07:09:40 13° 92° (E) 07:11:42 437.250
NOAA 18 26 Sep 07:13:59 07:18:47 31° 98° (E) 07:23:34 137.9125
HORYU 2 26 Sep 07:18:56 07:22:51 31° 289° (WNW) 07:26:46 437.375
Cosmos 2504 26 Sep 07:21:28 07:22:27 10° 295° (WNW) 07:23:27 435.465 / 435.565
DANDE 26 Sep 07:32:31 07:40:44 54° 77° (ENE) 07:48:22 436.750
LilacSat-2 26 Sep 07:37:44 07:41:35 85° 102° (ESE) 07:45:25 437.200
AO-85 26 Sep 08:04:50 08:08:34 36° 246° (WSW) 08:12:07 145.980
CUSAT 1 26 Sep 08:05:25 08:12:28 41° 272° (W) 08:18:27 437.405
O/OREOS (USA 219) 26 Sep 08:09:25 08:13:55 71° 108° (ESE) 08:18:28 437.305
GOMX 1 26 Sep 08:12:10 08:16:12 36° 288° (WNW) 08:20:03 467.674
BRITE-PL 26 Sep 08:13:28 08:16:29 17° 295° (WNW) 08:19:20 437.365/2234.400
NOAA 15 26 Sep 08:20:47 08:25:37 37° 290° (WNW) 08:30:25 137.62
STRAND 1 26 Sep 08:27:58 08:32:50 46° 260° (W) 08:37:44 437.568
Cubesat XI-IV 26 Sep 08:29:31 08:34:27 39° 290° (WNW) 08:39:22 437.490
CUTE-I 26 Sep 08:30:22 08:35:16 37° 290° (WNW) 08:40:09 437.470
CINEMA 3 26 Sep 08:32:55 08:36:41 32° 98° (E) 08:40:30 145.822/145.860
Cosmos 2499 26 Sep 08:39:24 08:44:44 23° 85° (E) 08:49:57 435.465 / 435.565
RS-15 26 Sep 08:39:42 08:48:25 24° 260° (W) 08:57:01 29.354- 29.394
DOVE 4 26 Sep 08:43:41 08:47:35 38° 287° (WNW) 08:51:24 437.250
NOAA 18 26 Sep 08:54:38 08:59:19 30° 292° (WNW) 09:04:01 137.9125
PRISM 26 Sep 08:56:15 08:59:53 30° 71° (ENE) 09:03:33 437.425
COMPASS 1 26 Sep 09:04:46 09:08:15 25° 96° (E) 09:11:44 437.405
HO-68 26 Sep 09:13:45 09:20:54 68° 104° (ESE) 09:27:59 435.675
DANDE 26 Sep 09:16:01 09:23:03 31° 274° (W) 09:29:41 436.750
GONETS M04 26 Sep 09:22:23 09:31:04 64° 92° (E) 09:39:46
CUTE 1.7 + AOD 2 26 Sep 09:23:45 09:28:04 82° 283° (WNW) 09:32:21 437.475
CANX-2 26 Sep 09:24:37 09:28:54 68° 284° (WNW) 09:33:10 2200.000
SEEDS 26 Sep 09:28:55 09:33:12 78° 100° (E) 09:37:27 437.485
TIGRISAT 26 Sep 09:45:35 09:46:55 11° 65° (ENE) 09:48:13 435.000
O/OREOS (USA 219) 26 Sep 09:52:42 09:53:49 11° 305° (NW) 09:54:57 437.305
CUBEBUG 2 26 Sep 09:53:23 09:57:40 75° 102° (ESE) 10:02:04 437.445
AAUSAT CUBESAT 2 26 Sep 09:57:17 10:01:29 87° 95° (E) 10:05:40 437.432
BEESAT 3 26 Sep 09:58:30 09:59:33 11° 46° (NE) 10:00:36 437.485
DELFI C3 26 Sep 10:01:27 10:02:38 11° 92° (E) 10:03:47 145.870
FUNcube-1 26 Sep 10:08:40 10:12:45 40° 99° (E) 10:16:54 145.935
CINEMA 3 26 Sep 10:10:53 10:13:35 17° 291° (WNW) 10:16:19 145.822/145.860
UWE-3 26 Sep 10:15:37 10:19:57 88° 100° (E) 10:24:22 435.000/436.395/437.385
UNISAT 6 26 Sep 10:22:44 10:26:35 33° 72° (ENE) 10:30:25 437.425
Cosmos 2499 26 Sep 10:30:18 10:37:18 51° 281° (W) 10:44:10 435.465 / 435.565
PRISM 26 Sep 10:32:17 10:35:11 18° 265° (W) 10:38:07 437.425
COMPASS 1 26 Sep 10:40:22 10:43:40 22° 290° (WNW) 10:46:56 437.405
BEESAT 2 26 Sep 10:48:33 10:51:22 18° 51° (NE) 10:54:10 435.950
ZACube-1 26 Sep 10:49:28 10:53:44 60° 285° (WNW) 10:58:05 437.345
Oscar 11 26 Sep 10:51:17 10:55:35 59° 285° (WNW) 10:59:51 145.826/435.025
PHONESAT 2.4 26 Sep 10:55:37 10:57:34 16° 145° (SE) 10:59:33 2401.200-2431.200
ANTELSAT 26 Sep 10:57:42 11:02:00 88° 75° (ENE) 11:06:16 437.575/2403.000
